[Date Prev][Date Next][Thread Prev][Thread Next] - [Date Index][Thread Index][Author Index]
2 Line ISS Keps 3-21
- Subject: [sarex] 2 Line ISS Keps 3-21
- From: "Dave Larsen PhD" <doc@xxxxxxxxxxx>
- Date: Tue, 21 Mar 2006 01:38:29 -0800
ISS
1 25544U 98067A 06080.14305556 .00014435 00000-0 10103-3 0 5703
2 25544 051.6442 280.5251 0008989 029.7293 110.4976 15.74496420419287
----
Via the sarex mailing list at AMSAT.ORG courtesy of AMSAT-NA.
To unsubscribe, send "unsubscribe sarex" to Majordomo@amsat.org
AMSAT Home